Content
SEND FEEDBACK

Daily
Averages
Monthly
Summary
United Kingdom

CROOKES, ENGLAND


Home > Europe > United Kingdom > England
Elevation: 433 feet     Latitude: 53 24N     Longitude: 001 30W

WEATHER
 
SELECT A DAY
Number of Records: 61,926;   Date Range: 3/16/06 - 7/20/14
 
SHARE

PRINT THIS DATA

[ ← Previous Day ]
WEATHER ALMANAC - OCTOBER 15, 2013
[ Next Day → ]
[ °C ]   °F
Weather ElementAverageHighLow
Temperature52.3 °F59 °F (12:20 pm)44.6 °F (10:50 pm)
Dewpoint49.1 °F53.6 °F (11:20 am)42.8 °F (10:50 pm)
Humidity89 %100 % (1:20 am)77 % (12:20 pm)
Barometer29.87 in30.01 in (10:50 pm)29.77 in (4:20 am)
Wind Speed8.6 mph12.7 mph (7:50 am)
Weather ElementAverage
Visibility6.2 mi
Wind DirectionSSW (192.3 °)

Weather ElementTotal
Precipitation---
Heating Degree Days13.2 (Base 65)
Growing Degree Days1.8 (Base 50)
Averaged from 43 records on October 15, 2013
WEATHER CONDITIONS BREAKOUT
WIND DIRECTION BREAKOUT
WEATHER BY HOUR - OCTOBER 15, 2013
[ °C ]   °F
Local TimeTemperatureDewpointHumidityBarometerVisibilityWind DirectionWind SpeedGust SpeedPrecipitationEventsConditions
12:50 AM50.0 °F48.2 °F94 %29.80 in6.2 miNNW (330°)6.9 mphScattered Clouds
1:20 AM48.2 °F48.2 °F100 %29.80 in6.2 miNW (320°)6.9 mphScattered Clouds
1:50 AM48.2 °F46.4 °F93 %29.80 in6.2 miNW (310°)8.1 mphScattered Clouds
4:20 AM48.2 °F46.4 °F93 %29.77 in6.2 miWest (280°)8.1 mphMostly Cloudy
4:50 AM50.0 °F48.2 °F94 %29.77 in6.2 miWNW (300°)9.2 mphMostly Cloudy
5:20 AM50.0 °F48.2 °F94 %29.77 in6.2 miWNW (290°)8.1 mphMostly Cloudy
5:50 AM50.0 °F48.2 °F94 %29.77 in6.2 miWNW (290°)9.2 mphMostly Cloudy
6:20 AM50.0 °F48.2 °F94 %29.77 in6.2 miWNW (300°)11.5 mphMostly Cloudy
6:50 AM50.0 °F48.2 °F94 %29.77 in6.2 miWNW (300°)11.5 mphMostly Cloudy
7:20 AM51.8 °F50.0 °F94 %29.77 in6.2 miWNW (300°)11.5 mphMostly Cloudy
7:50 AM51.8 °F50.0 °F94 %29.80 in6.2 miNW (310°)12.7 mphMostly Cloudy
8:20 AM51.8 °F50.0 °F94 %29.80 in6.2 miNW (310°)10.4 mphMostly Cloudy
8:50 AM51.8 °F50.0 °F94 %29.80 in5.6 miWNW (300°)9.2 mphMostly Cloudy
9:20 AM51.8 °F50.0 °F94 %29.80 in5.6 miNW (310°)10.4 mphMostly Cloudy
9:50 AM53.6 °F51.8 °F94 %29.83 in5.6 miNW (320°)10.4 mphMostly Cloudy
10:20 AM53.6 °F51.8 °F94 %29.83 in6.2 miNNW (330°)10.4 mphScattered Clouds
10:50 AM55.4 °F51.8 °F88 %29.83 in6.2 miNorth (350°)11.5 mphScattered Clouds
11:20 AM57.2 °F53.6 °F88 %29.83 in6.2 miNorth (360°)12.7 mphScattered Clouds
11:50 AM57.2 °F51.8 °F82 %29.83 in6.2 miNorth (10°)11.5 mphMostly Cloudy
12:20 PM59.0 °F51.8 °F77 %29.83 in6.2 miNorth (10°)9.2 mphScattered Clouds
12:50 PM59.0 °F53.6 °F82 %29.83 in6.2 miNorth (350°)9.2 mphMostly Cloudy
1:20 PM59.0 °F53.6 °F82 %29.86 in6.2 miNorth (10°)12.7 mphRainLight Rain Showers
1:50 PM57.2 °F51.8 °F82 %29.86 in6.2 miNNE (20°)10.4 mphScattered Clouds
2:20 PM57.2 °F51.8 °F82 %29.86 in6.2 miNorth (10°)10.4 mphScattered Clouds
2:50 PM57.2 °F51.8 °F82 %29.86 in6.2 miNNE (20°)8.1 mphRainLight Rain Showers
3:20 PM57.2 °F51.8 °F82 %29.89 in6.2 miNorth (10°)10.4 mphPartly Cloudy
3:50 PM59.0 °F51.8 °F77 %29.89 in6.2 miNorth (10°)9.2 mphScattered Clouds
4:20 PM57.2 °F50.0 °F77 %29.89 in6.2 miNNE (30°)12.7 mphRainLight Rain Showers
4:50 PM55.4 °F51.8 °F88 %29.89 in6.2 miNorth (10°)10.4 mphRainLight Rain Showers
5:20 PM55.4 °F50.0 °F82 %29.89 in6.2 miNNE (20°)8.1 mphScattered Clouds
5:50 PM55.4 °F50.0 °F82 %29.92 in6.2 miNorth (10°)10.4 mphScattered Clouds
6:20 PM53.6 °F48.2 °F82 %29.92 in6.2 miNNE (20°)10.4 mphMostly Cloudy
6:50 PM50.0 °F46.4 °F87 %29.95 in6.2 miNorth (10°)5.8 mphMostly Cloudy
7:20 PM51.8 °F48.2 °F88 %29.95 in6.2 miNorth (10°)4.6 mphMostly Cloudy
7:50 PM50.0 °F46.4 °F87 %29.98 in6.2 miNorth (10°)4.6 mphScattered Clouds
8:20 PM50.0 °F48.2 °F94 %29.98 in6.2 miNorth (360°)4.6 mphMostly Cloudy
8:50 PM50.0 °F46.4 °F87 %29.98 in6.2 miNNE (20°)3.5 mphMostly Cloudy
9:20 PM50.0 °F46.4 °F87 %29.98 in6.2 miNorth (350°)3.5 mphScattered Clouds
9:50 PM46.4 °F44.6 °F93 %29.98 in6.2 miNNW (330°)4.6 mphPartly Cloudy
10:20 PM46.4 °F44.6 °F93 %29.98 in6.2 miNorth (360°)4.6 mphPartly Cloudy
10:50 PM44.6 °F42.8 °F93 %30.01 inVariable3.5 mphClear
11:20 PM44.6 °F42.8 °F93 %30.01 inNNW (330°)4.6 mphClear
11:50 PM44.6 °F44.6 °F100 %29.98 inNNW (340°)5.8 mphClear
Hourly data recorded from EGCN, located miles away from Crookes, England







STORIES FROM OUR PARTNERS